Wetbulb
62.02 60.25 61.81 54.60 46.65 46.55 42.85 44.91 50.50 52.11 53.53 60.01 64.78 63.93 63.01 64.31 62.16 60.12 72.13 73.61 74.76 75.31 75.67 75.04 76.01 76.54 76.74 76.88 76.86 76.86 76.76 76.58 76.59 76.46 76.41 76.41 76.46 76.13 75.83 75.73 75.28 74.59 74.56 74.85 74.31 73.53 72.50 71.21 70.66
58.94 60.61 58.43 50.35 43.53 40.62 41.89 45.82 48.24 53.19 53.07 52.04 53.75 59.97 62.30 61.36 67.54 69.06 70.36 74.14 75.08 75.47 75.24 74.28 76.01 76.13 76.56 76.76 76.53 76.53 76.76 76.81 76.71 76.56 76.36 76.23 76.11 75.63 75.13 75.28 75.45 74.94 74.81 74.34 73.66 72.61 71.05 70.42 70.23
58.02 58.93 52.55 47.56 42.72 40.18 42.04 43.74 47.23 49.73 50.16 50.04 53.55 59.77 63.66 64.40 69.58 70.31 73.08 74.72 75.66 74.96 74.56 74.52 76.01 75.96 76.23 76.45 76.40 76.20 76.32 76.62 76.68 76.58 76.40 76.18 76.05 75.61 75.38 75.71 75.88 75.03 74.59 74.22 72.98 71.07 69.88 69.46 69.71
57.61 57.99 53.39 45.09 41.74 42.47 42.24 45.90 47.25 49.18 49.97 50.82 50.81 50.07 53.54 67.05 70.82 73.17 73.93 75.38 75.18 74.60 73.90 75.09 75.71 75.78 75.91 76.30 76.25 76.17 76.20 76.22 76.38 76.38 76.20 75.98 75.75 75.48 75.62 75.75 75.73 75.32 74.58 73.62 72.27 70.36 69.44 69.52 69.69
56.09 54.37 45.73 43.38 43.24 45.60 46.35 47.19 49.49 48.69 49.47 50.57 50.07 50.25 52.08 66.22 71.69 73.58 73.66 75.01 74.98 74.36 73.34 74.73 75.61 75.78 76.01 76.25 76.12 76.02 75.95 75.90 75.77 75.98 75.73 75.56 75.53 75.65 75.59 75.65 75.23 74.92 74.52 73.52 71.70 70.17 69.71 69.84 70.05
51.16 51.42 42.53 40.68 42.75 45.56 47.97 49.80 49.95 49.56 50.44 51.75 51.03 51.51 54.55 66.06 60.27 65.76 73.71 74.70 75.81 74.88 73.49 74.66 75.33 75.70 75.63 75.95 75.72 75.57 75.62 75.40 75.47 75.45 75.48 75.48 75.65 75.59 75.72 75.67 75.16 74.85 74.22 72.80 71.26 70.35 70.57 71.23 71.78
49.01 47.61 41.79 41.36 41.57 44.00 46.93 50.20 48.46 48.67 48.70 50.17 52.49 49.96 54.85 59.70 57.51 62.87 72.86 75.12 75.75 75.09 74.07 74.16 74.05 75.20 75.55 75.48 75.25 75.07 75.02 75.11 75.16 75.04 75.12 75.37 75.62 75.44 75.52 75.59 75.18 74.56 73.20 71.83 70.83 70.77 71.36 72.02 72.69
49.08 48.19 40.68 41.63 41.33 41.61 47.60 47.94 48.58 47.89 47.70 52.74 52.85 50.35 50.98 56.04 57.29 67.06 72.39 74.36 75.04 74.56 74.27 73.65 73.30 73.02 73.63 74.31 75.45 75.07 75.24 75.29 75.35 75.23 75.13 75.11 75.51 75.42 75.46 74.92 74.55 73.36 72.37 71.44 71.31 71.67 71.91 72.56 73.41
48.24 42.52 39.28 39.37 40.05 42.20 47.60 46.10 49.33 50.64 48.63 49.91 51.99 52.25 54.34 55.81 58.29 66.85 70.58 72.46 73.30 73.40 74.07 73.51 72.77 72.57 72.98 73.01 74.22 75.16 75.08 75.44 75.21 75.21 75.13 74.38 73.21 74.31 74.92 73.91 72.89 72.86 72.12 71.93 71.89 72.12 72.53 72.81 72.93
46.56 42.09 39.88 43.83 44.85 44.44 47.06 47.15 47.81 47.46 47.85 48.63 50.09 52.79 54.47 55.29 56.10 62.87 67.88 69.80 71.86 72.38 73.26 73.28 72.82 72.05 72.44 72.57 73.66 73.48 73.34 73.62 73.53 74.00 74.12 72.93 73.84 74.53 73.39 72.71 72.44 72.00 71.59 72.30 72.15 72.12 72.31 72.81 75.50
43.81 42.16 44.38 45.22 46.84 48.46 46.39 46.75 49.49 47.56 46.31 49.07 48.81 51.39 53.57 54.69 55.01 57.85 65.39 69.46 71.05 73.06 73.52 73.51 73.26 73.34 71.97 71.79 73.06 72.83 73.31 73.71 74.19 74.53 74.23 73.61 73.14 73.75 72.28 71.87 71.27 71.62 70.41 70.74 70.85 71.40 72.90 73.70 75.33
42.58 45.71 46.33 47.16 47.90 46.73 45.92 47.85 46.91 48.33 48.97 51.91 52.43 53.36 54.00 53.97 54.15 54.82 58.33 67.44 70.81 71.72 72.10 72.98 73.48 73.26 72.40 72.33 72.66 72.39 72.06 73.00 72.89 73.58 74.22 72.73 72.33 72.47 71.64 70.31 69.94 70.13 71.27 71.93 71.74 71.43 73.89 74.91 73.43
42.50 43.84 45.71 47.03 46.65 46.57 46.77 44.72 45.15 46.59 50.63 52.59 53.33 53.49 53.00 54.02 55.25 56.92 58.97 65.47 71.23 71.34 72.38 72.83 73.67 73.53 72.38 72.53 72.30 71.97 72.10 72.32 72.56 73.29 73.49 72.18 71.82 71.28 70.42 70.29 69.40 71.09 72.29 72.16 72.19 72.37 75.25 72.30 68.34
44.84 44.76 45.30 46.18 46.74 46.21 43.81 45.66 45.61 46.47 49.80 50.11 51.26 52.39 53.27 53.57 55.09 56.69 58.53 67.60 71.02 71.75 72.08 73.21 73.36 72.99 72.72 72.32 72.49 71.74 72.05 72.33 72.17 72.46 72.43 72.54 71.73 70.60 69.11 68.98 69.73 71.57 72.05 72.52 72.83 74.54 71.77 69.18 68.37
45.02 41.86 45.21 44.98 44.16 43.96 46.62 43.24 43.03 48.01 49.65 49.41 50.51 50.97 51.55 53.51 55.42 56.78 58.72 61.27 70.69 71.85 72.80 72.51 72.80 72.66 71.75 72.22 71.86 71.85 71.70 71.18 70.81 71.39 72.26 71.94 71.38 70.18 69.63 69.60 71.07 72.16 75.09 74.50 71.48 68.54 67.64 67.58 66.80
43.52 41.90 38.83 43.82 45.17 46.58 44.80 40.02 47.18 49.28 47.97 47.79 48.53 49.67 50.83 52.23 54.06 56.17 59.25 64.43 68.80 71.81 72.13 72.50 71.93 71.27 71.29 72.38 71.87 71.15 71.15 70.64 70.34 70.58 71.15 71.31 70.69 69.74 70.10 70.79 71.93 73.50 72.91 70.83 68.94 67.63 67.28 66.96 65.89
41.38 37.47 39.36 41.75 45.76 44.76 43.70 41.63 46.23 48.77 49.59 49.02 50.06 50.73 50.57 50.69 52.68 56.93 58.50 66.91 69.94 71.44 72.09 71.75 72.33 71.49 71.83 72.95 71.88 71.51 71.43 70.36 70.12 70.11 69.99 70.60 69.91 69.07 70.22 71.10 71.97 72.80 70.44 69.02 68.04 67.73 68.02 67.05 66.07
37.30 38.45 40.33 40.03 44.66 45.60 43.75 43.45 47.24 49.46 49.24 48.77 49.75 50.31 50.37 50.53 51.76 55.18 57.80 65.89 70.49 71.32 72.25 72.54 72.50 73.04 72.73 71.69 71.40 70.94 70.11 69.90 69.69 69.46 69.23 70.03 69.62 69.08 70.01 71.94 72.10 70.93 68.89 67.37 67.61 67.62 65.61 65.42 64.51
42.19 40.40 39.47 42.72 46.43 44.01 43.40 43.73 45.78 48.79 49.11 48.66 49.23 49.79 49.33 50.01 52.63 55.36 56.45 59.85 69.56 70.64 71.09 72.24 71.56 72.29 71.55 69.98 69.34 69.16 68.13 68.74 68.51 68.89 69.98 69.88 69.71 69.77 70.75 72.24 71.85 69.67 68.36 68.17 67.47 65.87 65.46 63.20 64.15
41.40 39.64 40.08 43.67 45.61 44.79 43.77 43.50 46.77 48.18 48.66 49.34 49.15 49.26 48.94 50.11 51.59 53.75 57.50 58.22 66.37 69.75 69.85 71.15 71.89 72.13 71.11 70.67 70.50 70.06 69.26 68.60 69.09 69.52 70.31 70.58 70.26 71.47 71.93 72.49 70.61 69.18 67.75 67.77 67.33 66.89 64.57 63.02 61.72
41.96 39.69 40.54 40.32 44.01 45.66 43.85 41.62 44.72 48.57 49.50 49.14 50.17 50.91 50.94 50.17 50.79 53.57 55.26 57.30 64.64 68.74 69.35 69.85 71.17 71.58 71.45 71.46 70.47 68.83 68.85 68.10 68.18 68.73 69.20 70.28 71.29 71.98 72.47 70.82 69.29 68.62 68.62 67.47 67.25 65.94 64.80 62.28 60.46
38.88 44.12 42.79 41.41 40.02 35.22 44.07 32.06 41.38 45.42 45.60 47.24 48.79 49.43 50.17 50.71 51.60 53.02 55.04 55.84 63.98 67.81 70.07 69.85 70.20 70.66 70.19 70.77 68.68 67.06 66.75 66.47 67.61 68.30 69.00 70.31 72.31 71.61 70.15 68.73 68.29 68.08 66.97 66.05 64.63 63.92 63.29 63.88 61.06
40.92 44.78 42.64 42.18 39.43 37.61 38.94 35.78 40.63 44.98 43.18 46.54 48.98 49.09 49.92 50.68 51.13 51.81 53.24 54.42 62.08 67.56 68.60 69.36 67.07 68.81 69.05 69.29 68.52 67.15 67.57 67.74 68.12 68.23 70.13 70.91 71.01 70.67 68.86 68.27 66.89 65.86 64.75 63.28 62.23 62.19 61.30 60.13 59.06
45.57 43.22 43.59 41.62 38.89 31.66 36.84 35.27 38.20 41.13 43.56 46.84 49.60 51.16 49.89 50.24 50.98 52.28 53.97 54.85 60.60 66.81 68.52 68.19 65.51 68.13 68.34 68.42 68.56 68.82 69.27 69.22 67.64 67.95 68.39 69.01 68.90 67.93 67.04 66.07 65.26 63.82 61.85 61.05 59.24 60.73 60.67 59.64 58.82
44.15 41.36 33.77 33.73 32.61 32.46 37.90 34.73 38.12 44.22 46.13 48.85 49.22 51.73 50.47 50.18 50.44 51.18 52.51 54.06 62.41 65.07 67.81 67.33 67.25 67.24 68.15 67.42 68.59 70.61 71.03 70.38 68.83 67.99 68.52 67.88 66.51 65.48 64.82 64.50 63.05 61.09 59.22 59.49 59.87 59.84 59.54 58.96 57.95
41.38 40.43 33.30 28.15 30.65 33.86 39.07 32.93 38.23 46.57 48.72 51.23 52.12 53.45 50.42 49.36 50.61 51.23 52.44 55.69 62.36 64.17 66.48 67.69 66.55 65.51 67.32 68.85 69.79 71.17 71.26 70.88 69.68 69.63 68.35 67.56 66.79 65.12 64.24 62.97 61.31 58.86 58.73 58.19 58.89 58.42 57.59 57.93 56.93
42.30 39.36 42.61 32.93 35.87 31.85 35.28 37.96 42.70 47.29 48.46 49.00 50.92 52.73 53.06 53.01 50.61 51.28 53.48 58.80 62.88 64.29 65.84 67.40 67.50 67.26 68.15 68.19 70.28 70.83 70.52 67.90 68.42 68.48 67.61 66.85 64.18 63.06 61.66 60.71 59.14 58.13 56.89 58.95 58.44 56.41 56.24 56.68 55.57
43.49 44.45 36.45 35.03 30.03 30.06 33.41 34.89 35.33 41.78 44.59 46.52 48.34 51.11 54.05 55.44 54.80 52.21 55.10 60.94 64.32 65.21 66.25 68.20 68.16 67.35 67.77 67.38 69.58 70.06 70.72 70.18 68.03 66.24 63.80 63.77 62.24 59.71 58.74 58.15 56.86 56.38 56.71 56.15 57.09 56.24 55.89 54.18 52.99
41.22 38.75 39.58 38.41 35.69 31.10 29.57 33.74 42.32 43.41 45.29 45.83 47.11 50.75 55.78 56.40 56.03 54.48 57.33 62.71 65.37 65.88 66.08 66.25 66.27 65.82 65.91 67.24 68.50 69.71 69.07 68.28 65.07 64.73 62.50 60.26 60.49 56.83 56.14 55.57 55.80 54.20 54.16 55.75 55.81 54.33 53.46 52.13 51.05
43.17 40.21 40.17 34.37 34.86 34.91 33.11 33.46 45.61 46.72 48.04 48.07 48.00 50.30 56.82 58.07 57.45 56.42 58.69 62.76 65.59 65.97 65.81 64.11 65.22 66.19 66.89 67.42 66.65 66.83 65.76 64.09 61.22 60.03 58.56 58.62 57.07 55.03 55.90 55.67 53.29 54.07 53.74 54.55 54.04 51.72 51.55 48.86 47.84
MSLP
1011.20 1010.94 1010.74 1010.10 1010.10 1009.24 1007.76 1006.99 1006.66 1005.56 1004.98 1004.71 1004.47 1004.28 1004.05 1003.94 1003.60 1003.43 1003.89 1004.07 1004.56 1005.26 1006.00 1006.45 1006.48 1005.94 1007.07 1007.48 1008.52 1008.71 1008.94 1009.25 1009.75 1010.48 1010.89 1011.17 1011.63 1012.14 1012.52 1012.82 1013.11 1013.39 1013.63 1013.88 1013.96 1013.90 1013.91 1013.94 1013.92
1011.11 1010.80 1010.40 1010.17 1009.40 1008.33 1007.32 1007.21 1006.28 1005.39 1005.45 1005.04 1004.61 1004.22 1004.06 1003.38 1003.30 1002.73 1003.28 1004.25 1004.64 1005.28 1006.00 1006.76 1006.82 1006.58 1006.31 1007.41 1008.45 1008.78 1009.05 1009.51 1009.74 1010.30 1010.94 1011.48 1011.92 1012.34 1012.63 1012.96 1013.20 1013.51 1013.86 1014.05 1014.14 1014.17 1014.08 1013.97 1013.79
1011.08 1010.84 1010.04 1009.69 1009.10 1008.08 1007.13 1007.23 1006.78 1006.20 1005.98 1005.38 1004.68 1004.39 1004.05 1003.62 1003.51 1003.21 1003.94 1004.44 1004.96 1005.40 1005.99 1006.72 1007.51 1007.32 1006.80 1007.31 1008.05 1008.61 1009.20 1009.59 1010.10 1010.59 1011.05 1011.31 1011.88 1012.53 1012.87 1013.07 1013.32 1013.51 1013.92 1014.17 1014.26 1014.29 1014.30 1014.18 1014.06
1010.89 1010.66 1010.90 1009.93 1008.82 1008.86 1008.15 1007.74 1007.59 1006.87 1006.26 1005.89 1005.43 1004.64 1004.21 1004.07 1004.22 1004.64 1004.64 1004.94 1005.12 1005.44 1005.96 1006.66 1007.36 1007.80 1007.82 1007.71 1008.15 1008.31 1009.10 1009.58 1009.93 1010.56 1011.42 1011.82 1012.08 1012.50 1012.80 1013.12 1013.40 1013.56 1013.91 1014.20 1014.33 1014.35 1014.32 1014.26 1014.10
1011.22 1010.80 1010.04 1009.63 1009.34 1009.20 1008.82 1008.35 1008.06 1007.20 1006.76 1006.15 1006.01 1004.62 1004.73 1004.87 1005.01 1005.03 1005.03 1005.15 1005.07 1005.40 1005.97 1006.68 1007.30 1007.60 1008.20 1008.24 1008.30 1008.51 1009.05 1009.76 1010.23 1010.64 1011.18 1011.98 1012.31 1012.55 1013.03 1013.06 1013.39 1013.67 1013.93 1014.22 1014.33 1014.32 1014.30 1014.30 1014.11
1010.96 1011.12 1010.17 1009.33 1009.34 1009.63 1009.22 1008.84 1008.31 1007.59 1007.16 1006.45 1006.06 1005.51 1004.81 1005.08 1004.77 1004.93 1005.20 1005.12 1005.26 1005.52 1005.78 1006.50 1007.40 1007.80 1008.26 1008.49 1008.69 1009.02 1009.25 1009.81 1010.44 1010.86 1011.32 1011.85 1012.36 1012.66 1012.88 1013.16 1013.44 1013.74 1014.15 1014.36 1014.46 1014.43 1014.35 1014.28 1014.12
1011.07 1011.00 1010.53 1010.44 1010.25 1009.92 1009.58 1009.42 1008.87 1008.40 1007.88 1006.85 1006.64 1005.74 1004.78 1004.61 1004.80 1004.50 1004.99 1005.14 1005.46 1005.86 1006.04 1006.48 1007.07 1007.76 1008.16 1008.60 1008.70 1009.39 1009.65 1010.05 1010.39 1011.03 1011.51 1011.99 1012.35 1012.74 1013.12 1013.41 1013.62 1013.87 1014.14 1014.43 1014.43 1014.38 1014.27 1014.22 1014.01
1011.72 1011.60 1011.30 1011.18 1010.63 1010.15 1010.18 1009.92 1009.72 1009.18 1008.27 1007.68 1006.82 1005.36 1005.02 1004.75 1005.00 1004.58 1004.98 1005.22 1005.44 1005.92 1006.08 1006.26 1006.68 1007.36 1007.87 1008.47 1009.08 1009.35 1010.02 1010.50 1010.76 1011.22 1011.53 1012.17 1012.62 1013.06 1013.35 1013.62 1013.73 1013.98 1014.13 1014.30 1014.35 1014.28 1014.30 1014.14 1013.88
1012.23 1011.72 1011.39 1011.09 1010.84 1010.37 1010.34 1010.06 1009.60 1009.28 1008.73 1007.98 1007.07 1006.02 1005.88 1005.50 1005.37 1005.05 1005.30 1005.39 1005.64 1005.89 1006.16 1006.26 1006.47 1007.16 1007.58 1008.12 1009.05 1009.63 1010.10 1010.63 1011.08 1011.49 1011.73 1012.05 1012.37 1012.88 1013.34 1013.53 1013.74 1013.91 1014.06 1014.20 1014.25 1014.13 1014.10 1013.96 1013.71
1011.88 1011.80 1011.25 1011.06 1010.81 1010.52 1010.50 1010.17 1009.82 1009.25 1008.30 1007.59 1006.95 1005.92 1005.74 1005.51 1005.48 1005.14 1005.23 1005.32 1005.42 1005.56 1005.94 1006.48 1006.86 1007.13 1007.49 1008.11 1008.60 1009.47 1010.07 1010.52 1010.87 1011.42 1011.88 1011.80 1012.26 1012.68 1012.99 1013.62 1013.90 1013.95 1013.94 1014.02 1014.10 1014.02 1013.86 1013.61 1013.12
1012.33 1011.43 1011.39 1011.06 1010.88 1010.73 1010.46 1009.97 1009.45 1008.86 1007.79 1007.32 1006.67 1005.83 1005.41 1005.44 1005.21 1005.08 1004.90 1004.93 1005.13 1005.42 1005.86 1006.10 1006.91 1007.32 1007.63 1008.24 1008.74 1009.15 1009.72 1010.44 1010.85 1011.37 1011.75 1011.94 1012.30 1012.76 1012.93 1013.27 1013.57 1013.74 1013.85 1013.54 1013.62 1013.57 1013.31 1013.24 1013.04
1012.29 1011.85 1011.62 1010.98 1010.80 1010.53 1010.08 1009.74 1008.77 1008.03 1007.35 1007.01 1006.56 1005.94 1005.38 1004.97 1004.76 1004.64 1004.40 1004.57 1004.86 1005.09 1005.57 1006.10 1006.67 1007.26 1007.71 1007.98 1008.91 1009.38 1009.69 1010.14 1010.62 1011.05 1011.69 1012.10 1012.42 1012.80 1013.06 1013.20 1013.37 1013.72 1013.57 1013.45 1013.50 1013.30 1013.38 1013.35 1013.43
1011.96 1011.68 1011.49 1010.98 1010.59 1009.96 1009.78 1008.90 1008.28 1007.00 1006.72 1006.40 1005.74 1005.52 1004.84 1004.51 1004.26 1004.12 1004.23 1003.92 1004.35 1004.74 1005.05 1005.78 1006.46 1007.16 1007.61 1008.01 1008.69 1009.24 1009.72 1010.20 1010.44 1010.97 1011.46 1011.96 1012.40 1012.78 1013.04 1013.31 1013.36 1013.37 1013.40 1013.38 1013.32 1013.35 1013.39 1013.54 1013.56
1011.83 1011.50 1010.94 1010.37 1009.63 1009.53 1009.08 1007.62 1007.58 1006.26 1006.19 1005.97 1005.64 1005.18 1004.55 1004.06 1003.80 1003.63 1003.54 1003.56 1003.82 1004.06 1004.51 1004.97 1005.91 1006.74 1007.43 1007.74 1008.27 1009.06 1009.57 1010.03 1010.45 1010.74 1010.99 1011.82 1012.39 1012.85 1013.12 1013.26 1013.30 1013.31 1013.34 1013.29 1013.26 1013.30 1013.73 1013.85 1013.78
1011.69 1010.99 1010.42 1009.47 1009.47 1009.13 1008.46 1006.52 1006.36 1005.92 1005.63 1005.43 1005.19 1004.90 1004.43 1003.86 1003.47 1003.18 1002.88 1002.89 1003.19 1003.49 1003.80 1004.37 1005.04 1006.09 1006.94 1007.57 1008.02 1008.60 1009.30 1009.95 1010.38 1010.57 1011.12 1011.58 1012.02 1012.74 1013.16 1013.16 1013.04 1013.09 1013.20 1013.28 1013.63 1013.76 1013.91 1013.94 1014.04
1011.22 1011.06 1010.14 1009.38 1009.07 1008.68 1008.32 1004.40 1005.37 1005.46 1005.19 1004.94 1004.77 1004.52 1004.14 1003.44 1002.95 1002.80 1002.60 1002.15 1002.35 1002.98 1003.45 1003.97 1004.56 1005.36 1006.30 1006.94 1007.54 1008.24 1008.90 1009.43 1010.17 1010.74 1011.11 1011.55 1011.94 1012.48 1012.98 1013.03 1012.91 1012.92 1013.21 1013.26 1013.54 1013.88 1013.93 1014.02 1014.18
1011.11 1010.34 1009.86 1009.02 1008.80 1008.51 1008.07 1004.77 1005.40 1005.38 1004.93 1004.20 1004.19 1003.85 1003.63 1003.06 1002.49 1002.21 1002.12 1001.89 1001.93 1002.36 1002.88 1003.38 1003.97 1004.61 1005.50 1006.46 1007.02 1007.89 1008.51 1009.02 1009.68 1010.33 1010.96 1011.41 1011.69 1012.24 1012.76 1012.78 1012.90 1013.25 1013.27 1013.47 1013.68 1014.04 1014.00 1014.17 1014.31
1010.76 1010.32 1009.93 1008.83 1007.96 1007.74 1006.37 1004.42 1004.16 1004.45 1004.13 1003.47 1003.22 1003.05 1002.93 1002.45 1001.89 1001.56 1001.78 1001.66 1001.87 1002.00 1002.39 1002.88 1003.47 1004.22 1005.06 1006.11 1006.68 1007.56 1008.27 1008.78 1009.26 1009.85 1010.34 1010.98 1011.56 1011.90 1012.27 1012.43 1012.76 1013.14 1013.38 1013.60 1013.86 1014.12 1014.34 1014.48 1014.60
1011.03 1010.50 1009.30 1008.25 1007.18 1006.67 1005.02 1004.38 1002.45 1002.86 1002.67 1002.20 1001.78 1001.68 1001.62 1001.77 1001.11 1001.06 1001.20 1001.42 1001.59 1001.83 1002.05 1002.44 1003.08 1003.95 1004.59 1005.19 1005.70 1006.61 1007.24 1008.25 1009.00 1009.55 1010.06 1010.74 1011.28 1011.70 1012.11 1012.22 1012.58 1013.06 1013.26 1013.53 1014.01 1014.25 1014.52 1014.58 1014.76
1010.56 1009.90 1008.52 1007.51 1006.85 1006.40 1004.00 1002.74 1001.69 1001.47 1001.36 1001.10 1000.66 1000.56 1000.48 1000.40 1000.38 1000.20 1000.27 1000.82 1000.94 1001.35 1001.70 1002.03 1002.60 1003.29 1003.95 1004.52 1005.01 1005.52 1006.65 1007.83 1008.61 1009.23 1009.80 1010.25 1010.79 1011.28 1011.52 1012.03 1012.55 1013.16 1013.35 1013.69 1013.96 1014.21 1014.36 1014.70 1014.86
1009.70 1009.23 1007.97 1007.24 1006.42 1005.92 1003.90 1001.63 1000.72 999.92 1000.16 999.99 999.66 999.56 999.84 1000.01 999.67 999.03 999.15 999.76 1000.12 1000.68 1001.24 1001.63 1002.23 1002.63 1003.29 1004.02 1004.82 1005.67 1006.60 1007.77 1008.40 1008.83 1009.28 1009.79 1010.26 1010.90 1011.32 1011.98 1012.52 1013.15 1013.28 1013.58 1014.06 1014.32 1014.40 1014.35 1015.03
1008.74 1008.46 1008.06 1007.02 1006.60 1005.43 1004.86 1001.67 1000.71 999.90 999.43 999.30 998.85 998.59 998.43 998.64 998.98 998.50 998.08 998.62 999.13 999.66 1000.48 1001.07 1001.57 1002.13 1003.06 1003.87 1004.16 1004.36 1005.47 1006.42 1007.19 1008.03 1008.81 1009.60 1010.03 1010.88 1011.50 1012.07 1012.64 1013.30 1013.46 1014.02 1014.52 1014.72 1014.44 1014.38 1014.53
1008.86 1008.40 1007.62 1006.99 1006.74 1006.50 1004.77 1004.10 1000.17 999.52 998.85 998.47 998.30 998.00 997.40 997.44 997.55 997.33 997.04 997.80 998.04 998.55 999.48 1000.47 1001.32 1002.07 1002.81 1003.26 1003.36 1003.78 1004.89 1005.86 1006.53 1007.77 1008.78 1009.60 1010.08 1010.71 1011.39 1012.02 1012.78 1013.34 1013.74 1014.40 1014.65 1014.91 1014.91 1014.94 1015.04
1009.09 1008.35 1006.88 1006.78 1006.98 1006.40 1004.55 1004.19 1000.06 999.70 999.29 998.62 997.61 996.92 996.46 996.25 996.35 996.46 996.12 997.14 997.29 997.95 998.96 999.98 1000.96 1001.63 1002.37 1002.81 1003.02 1003.88 1004.52 1005.31 1006.31 1007.42 1008.48 1009.45 1010.15 1011.05 1011.55 1012.06 1012.78 1013.45 1014.12 1014.60 1014.93 1015.22 1015.24 1015.56 1015.57
1009.10 1008.32 1007.51 1007.05 1006.66 1004.82 1004.85 1004.48 1001.50 1000.43 999.85 999.14 997.97 996.72 995.69 995.53 995.50 995.44 995.98 996.02 996.84 997.60 998.37 999.51 1000.34 1001.16 1002.29 1002.70 1002.77 1003.37 1004.00 1004.90 1006.06 1007.29 1008.09 1008.86 1010.17 1010.82 1011.73 1012.28 1012.85 1013.80 1014.27 1014.88 1015.16 1015.45 1015.73 1015.92 1016.21
1009.60 1009.93 1009.93 1008.92 1006.89 1004.40 1004.47 1003.99 1002.30 1000.94 1000.07 998.97 997.75 996.50 995.55 995.28 994.88 994.86 995.19 995.34 996.04 997.00 997.84 998.67 999.84 1000.74 1001.18 1002.56 1001.19 1002.56 1003.86 1005.04 1006.16 1007.43 1007.99 1008.70 1009.78 1010.91 1011.55 1012.56 1013.26 1014.04 1014.31 1015.10 1015.56 1015.64 1016.07 1016.52 1016.86
1009.62 1009.75 1010.17 1009.46 1007.78 1006.54 1004.52 1004.12 1002.85 1001.21 999.99 998.95 997.48 996.20 995.49 995.36 994.87 994.40 994.48 994.80 995.38 996.56 997.23 997.86 998.59 999.65 999.18 1000.78 1001.67 1002.74 1004.11 1004.82 1006.19 1007.25 1007.87 1008.88 1010.26 1011.28 1011.96 1013.08 1013.75 1014.43 1014.72 1015.21 1015.69 1015.92 1016.43 1017.07 1017.63
1010.00 1010.33 1010.23 1010.13 1008.45 1006.05 1004.59 1004.34 1003.72 1002.06 1000.74 999.80 998.51 996.98 995.61 994.81 994.48 994.19 993.98 994.37 994.99 996.40 997.22 997.94 998.58 999.43 1000.01 1001.21 1002.16 1003.04 1003.98 1004.76 1005.66 1007.60 1008.33 1008.76 1010.12 1011.38 1011.46 1013.88 1014.38 1015.18 1015.62 1015.79 1016.12 1016.51 1017.17 1017.80 1018.36
1009.51 1010.35 1010.46 1010.37 1009.20 1007.86 1005.93 1005.04 1004.44 1003.44 1002.30 1000.84 999.52 997.90 995.86 994.93 994.54 994.19 994.08 994.38 995.06 996.17 997.25 998.26 999.07 1000.06 1000.93 1001.66 1002.32 1003.24 1004.60 1005.62 1006.39 1007.75 1009.13 1009.53 1010.75 1011.84 1011.25 1014.05 1014.71 1015.69 1015.75 1016.19 1016.59 1016.80 1017.72 1018.51 1019.30
1009.71 1010.03 1010.27 1009.60 1008.41 1008.00 1007.24 1005.46 1004.33 1003.56 1002.60 1001.52 999.96 998.22 995.71 994.47 994.26 994.38 994.32 994.89 995.34 996.13 997.24 998.62 999.49 1000.27 1001.16 1002.13 1002.64 1004.28 1005.40 1006.20 1007.17 1008.23 1009.57 1010.35 1011.59 1011.83 1012.98 1014.20 1015.23 1015.24 1016.16 1016.80 1016.64 1017.61 1018.81 1019.43 1019.64
Wind_Speed
8 6 0 1 4 2 4 5 3 7 5 3 1 2 5 3 5 2 1 11 14 20 18 20 21 26 23 23 19 19 20 21 21 19 19 18 17 16 15 13 12 11 10 8 7 7 6 6 5
7 1 2 3 5 7 5 3 10 6 4 10 4 6 7 8 7 10 4 10 17 19 17 16 19 22 27 23 21 19 19 19 20 20 19 17 16 15 14 13 12 11 9 7 6 5 4 4 4
1 3 3 4 4 9 5 4 4 7 6 5 4 3 4 3 3 5 5 12 16 17 16 15 16 19 23 24 22 20 19 19 18 18 18 18 16 14 13 12 11 11 9 6 5 3 2 1 2
1 3 3 5 11 4 2 5 3 6 1 2 5 9 4 8 10 12 2 13 16 17 16 18 19 16 19 22 21 21 20 19 19 19 16 14 15 14 13 11 10 10 9 6 4 2 1 2 2
3 1 4 5 5 3 5 5 5 7 6 7 7 6 5 6 9 10 1 10 16 17 15 18 18 19 18 20 20 21 20 18 18 18 17 15 14 14 11 11 10 9 8 6 4 2 1 3 3
3 1 4 10 8 2 3 6 7 5 6 9 5 11 2 6 15 14 4 9 13 16 17 18 18 18 18 18 18 18 19 19 17 17 17 16 14 13 12 10 9 7 5 4 2 1 2 4 4
2 1 2 1 2 2 1 8 4 4 9 6 13 8 5 8 19 19 6 9 11 14 16 16 17 16 17 17 18 17 17 18 18 16 15 14 13 12 9 8 7 5 4 2 2 1 3 5 5
3 0 1 1 1 3 0 10 6 8 9 12 5 6 5 12 22 15 4 8 11 13 16 17 16 16 15 14 15 17 16 15 16 15 15 12 11 9 8 6 6 4 3 2 2 2 4 5 7
1 2 3 3 4 1 7 8 9 6 13 14 11 17 16 22 16 9 4 8 10 12 15 16 17 16 15 15 14 14 17 16 14 14 13 12 9 10 9 5 5 5 3 3 4 3 4 5 4
2 3 6 4 4 7 11 12 11 8 14 17 18 20 17 14 14 10 8 10 13 15 17 15 16 16 15 11 15 13 12 11 11 11 12 9 9 8 6 4 4 4 3 4 5 5 6 6 1
2 4 3 7 11 11 8 14 13 13 18 16 16 20 20 18 14 13 10 12 14 14 14 17 15 13 14 11 9 8 8 7 8 11 10 8 7 6 5 4 4 3 3 3 3 3 3 3 2
5 7 10 11 11 9 14 13 19 20 20 20 20 20 22 21 18 15 14 14 14 15 15 15 16 13 13 9 9 8 8 9 8 9 10 6 5 5 4 3 4 3 3 3 2 2 3 4 1
6 4 5 11 17 20 18 21 24 25 22 22 22 20 21 18 20 16 14 16 15 17 17 16 15 15 13 12 9 9 9 8 9 9 9 7 6 5 4 3 3 3 3 3 2 2 2 2 2
3 11 17 14 19 11 11 19 11 10 13 19 23 20 21 20 18 14 11 14 17 19 20 19 18 13 15 12 13 9 8 9 9 9 10 10 6 4 4 4 3 3 3 3 3 1 1 2 2
8 14 14 11 2 6 9 19 14 14 13 15 17 14 15 17 14 13 11 13 18 18 20 22 20 16 15 16 13 10 8 8 8 8 10 11 8 6 5 4 4 2 1 3 4 4 3 1 1
9 4 7 2 10 9 4 26 12 11 8 10 13 14 16 18 17 14 12 12 16 18 21 21 16 18 17 17 13 10 10 9 8 7 7 10 9 8 6 5 3 3 3 4 4 3 2 2 2
2 11 20 16 4 9 7 25 2 7 17 24 21 23 17 19 20 15 11 11 15 19 20 21 22 21 21 18 13 12 12 9 8 8 7 9 9 9 6 4 2 4 3 3 3 2 1 1 2
17 20 19 20 8 18 27 33 27 22 21 23 21 20 19 18 20 18 9 11 14 18 20 20 18 19 20 14 12 9 8 8 8 8 7 9 7 10 8 5 5 5 4 4 3 3 4 3 2
14 16 21 25 24 22 25 23 30 23 23 24 24 20 19 19 20 17 12 11 15 16 19 20 20 19 15 14 14 13 12 10 8 7 9 9 8 9 7 5 6 6 6 4 5 4 3 3 1
15 18 21 17 12 18 26 28 30 27 25 25 26 23 22 20 19 20 14 10 17 19 20 21 20 20 17 13 11 11 11 9 8 8 9 10 10 10 8 7 6 6 5 6 5 3 3 2 4
12 12 15 23 24 20 26 24 18 23 18 16 20 23 22 22 21 21 18 13 16 20 21 20 20 20 18 17 12 9 10 7 8 9 9 9 11 10 8 8 7 7 5 4 4 3 3 3 3
13 5 18 24 20 12 15 16 21 15 13 11 16 19 20 22 23 22 19 14 15 20 20 20 20 20 18 19 16 19 12 12 9 9 8 8 10 10 9 9 8 6 4 5 4 2 3 2 3
10 17 22 24 20 15 11 8 9 13 12 19 16 18 20 21 21 24 22 16 16 16 20 19 18 18 19 18 16 15 12 10 10 9 12 10 10 11 11 11 10 8 6 7 7 6 6 5 4
18 16 22 3 1 5 6 5 11 6 11 22 25 18 19 19 22 24 20 15 15 15 18 20 19 18 18 18 16 14 16 14 12 12 11 9 9 9 11 12 10 9 9 8 8 8 9 7 8
11 13 6 3 3 7 4 5 13 16 15 23 22 19 14 16 19 20 18 14 14 15 18 19 22 21 18 17 19 17 16 16 15 13 12 13 10 10 11 12 11 9 8 9 8 9 9 9 8
15 5 2 8 10 18 14 6 6 12 16 21 18 14 6 14 17 16 18 16 17 17 19 22 24 18 18 18 16 15 15 10 9 10 10 10 9 10 13 12 12 12 10 9 8 9 9 10 9
5 11 12 7 7 7 3 5 11 11 22 25 23 19 11 6 15 17 18 17 17 17 20 20 19 18 18 16 15 16 15 16 12 15 13 11 11 10 13 14 13 12 11 12 10 9 10 10 8
7 11 4 2 8 9 4 5 5 21 27 26 23 21 17 11 7 13 16 17 17 17 16 18 18 18 17 18 15 13 13 14 14 11 12 16 14 14 17 12 12 11 10 9 12 10 11 11 7
5 5 4 4 4 6 6 5 5 16 18 19 20 20 16 11 9 10 14 15 16 17 17 13 13 16 16 17 15 14 11 12 13 11 11 12 15 15 18 13 14 10 10 11 12 14 12 11 7
4 6 9 4 7 4 4 5 8 15 15 18 20 21 19 11 7 8 10 13 17 16 15 14 16 17 17 17 15 11 11 12 11 12 13 14 15 15 16 14 12 11 12 12 14 14 10 9 8
Wind_Direction
334 341 174 136 210 253 222 217 294 215 209 39 177 219 241 293 199 247 40 182 145 160 167 162 158 146 146 143 152 149 145 145 142 141 141 140 139 142 142 145 149 153 151 144 139 129 121 112 108
333 349 117 109 237 222 215 226 213 221 354 320 275 260 245 266 252 287 40 145 148 152 159 165 165 156 147 148 152 149 144 144 142 142 142 139 139 142 144 148 151 152 150 145 141 130 125 124 123
9 3 195 191 213 229 252 190 249 291 319 326 306 311 292 278 309 309 77 148 148 152 156 161 172 161 149 150 152 147 145 143 141 140 143 142 142 144 150 152 154 149 147 146 136 130 131 100 55
123 146 108 231 214 212 269 134 352 340 229 19 334 282 292 351 353 1 106 152 157 157 163 160 165 164 157 153 153 146 147 146 143 142 143 143 144 149 154 155 156 149 148 150 139 132 317 5 17
41 158 205 233 225 262 239 269 292 313 306 313 338 284 298 40 15 12 211 183 171 161 167 162 164 162 165 158 154 150 149 147 145 144 144 149 150 151 158 157 157 157 154 153 152 165 301 332 332
119 328 221 241 231 224 258 316 302 313 325 319 322 308 260 114 18 358 257 202 186 168 164 163 164 165 166 158 154 154 149 149 147 146 148 152 157 160 163 162 159 162 164 152 138 299 322 306 320
63 178 275 305 232 275 21 341 39 9 322 304 326 283 291 258 351 337 250 185 178 175 168 167 169 168 162 161 155 157 152 151 148 150 152 158 160 162 163 161 159 158 166 176 175 280 312 309 298
102 39 348 359 27 258 325 344 335 328 305 319 291 258 288 317 333 340 236 194 175 183 176 169 168 171 170 165 162 157 155 154 151 154 153 157 160 163 161 158 162 170 202 229 259 298 303 308 306
137 185 208 239 233 173 299 314 303 284 275 278 269 283 292 307 325 337 225 205 193 188 184 178 173 170 170 168 168 162 160 159 155 159 158 152 177 176 174 160 166 194 221 262 280 284 283 289 280
154 214 220 209 219 265 283 280 285 280 279 277 278 280 292 301 313 307 244 224 215 191 190 185 185 176 170 169 166 174 173 176 175 179 177 177 176 176 180 180 208 229 239 261 282 296 281 254 302
147 255 243 249 257 286 262 273 272 267 266 264 272 289 294 300 299 285 261 240 220 214 199 191 184 177 176 170 169 171 172 176 177 183 183 181 178 178 180 173 207 229 205 243 234 248 271 316 328
271 260 265 287 286 277 267 281 269 256 257 271 268 277 284 287 288 285 267 237 214 204 207 198 186 179 179 168 176 172 177 175 178 184 183 180 182 178 178 189 204 225 237 245 253 283 304 266 354
249 252 256 271 279 274 279 264 262 269 261 253 258 262 266 271 281 284 266 246 216 205 196 196 183 183 176 169 172 183 183 185 180 180 178 185 191 182 175 194 225 236 256 263 270 289 354 99 73
290 281 287 278 272 270 259 268 254 260 269 259 262 255 265 268 271 281 277 233 210 204 198 189 181 173 180 180 172 179 184 182 185 182 178 181 184 177 195 196 219 248 264 268 262 204 102 31 349
280 293 308 281 298 254 302 266 242 259 278 275 266 266 271 274 276 268 269 243 218 205 194 187 178 165 178 182 171 173 177 185 192 188 182 181 173 173 210 218 211 220 197 120 125 123 114 102 30
295 286 323 6 286 309 278 278 295 269 262 261 262 272 286 275 280 281 281 248 214 205 195 187 173 167 172 180 173 174 177 183 186 185 188 184 172 174 196 225 223 156 141 136 133 136 130 72 9
17 308 313 314 295 289 255 290 288 266 284 275 266 273 266 273 279 272 277 247 204 199 192 187 181 173 172 178 171 180 179 182 180 180 188 188 182 181 212 227 199 162 145 137 138 125 57 65 13
307 304 301 293 286 285 283 279 284 280 271 268 265 259 258 254 263 272 265 243 212 195 190 187 181 177 171 169 168 172 180 184 183 182 185 178 192 189 191 197 185 174 160 152 154 129 72 36 17
294 291 291 291 295 290 274 281 284 282 271 263 258 250 241 244 253 265 259 237 214 197 191 185 178 173 168 171 174 183 186 184 178 180 179 183 192 192 195 189 174 176 177 164 147 123 102 68 20
287 287 286 290 292 299 289 285 288 284 275 268 263 254 244 233 235 255 255 226 209 200 192 183 183 175 176 176 178 174 172 184 180 178 182 184 188 191 190 184 166 176 158 157 160 169 162 112 26
289 272 285 294 307 287 286 283 288 300 303 279 266 255 251 242 234 238 243 224 205 201 193 186 182 180 179 177 159 142 147 140 172 178 181 186 185 188 177 168 163 165 177 159 156 163 196 141 76
305 311 299 296 308 306 333 297 300 308 318 302 271 262 254 236 233 239 238 228 202 201 193 186 182 180 180 174 173 155 162 175 180 174 179 176 171 166 158 154 146 151 132 128 115 113 108 152 107
279 311 291 292 290 301 295 259 272 311 328 337 313 271 263 238 219 228 236 230 217 194 186 184 181 182 176 174 170 158 158 164 161 169 158 161 154 153 152 145 139 132 120 108 113 98 76 75 88
295 301 302 15 291 254 234 237 292 303 329 330 315 301 267 233 222 231 230 219 228 197 181 178 176 178 176 167 153 158 155 152 153 156 160 161 149 149 143 137 132 123 117 115 104 103 93 85 77
318 354 310 306 245 296 133 239 275 306 318 319 317 312 278 232 219 223 225 197 214 204 179 169 172 169 169 164 160 156 147 145 149 157 166 155 156 151 146 137 133 122 113 110 114 104 96 85 80
323 339 303 308 311 304 312 242 264 326 316 329 326 328 321 243 226 214 220 198 202 201 190 178 167 161 156 163 137 140 137 142 144 162 154 150 151 149 138 133 126 120 114 117 113 104 92 89 84
16 326 325 267 250 275 270 276 283 308 334 344 337 335 340 303 238 213 206 198 195 192 197 189 176 170 147 143 139 143 151 144 153 159 150 141 131 131 127 128 126 118 115 120 112 102 99 92 86
301 318 290 256 306 308 328 299 298 331 331 333 338 328 322 320 296 220 199 197 189 184 190 182 176 165 151 149 160 153 160 152 142 148 148 136 128 128 121 121 111 108 115 111 107 100 92 87 79
355 321 301 258 255 284 315 322 280 320 326 330 328 322 314 298 276 234 206 186 183 174 171 163 159 146 147 150 153 148 151 146 138 139 142 129 128 134 108 128 120 120 114 111 107 98 94 94 94
339 317 310 285 317 292 259 280 348 336 341 344 335 329 315 290 232 201 183 175 179 160 156 153 152 158 157 158 149 145 130 132 117 121 125 127 131 113 125 131 129 119 115 119 102 97 98 102 87